[[{"header":{"parameterUnit":"m.s-1","parameterCategory":1,"la1":30.2991,"la2":30.254,"lo1":-89.0895,"lo2":-89.0444,"dy":0.0017,"dx":0.0017,"nx":28,"ny":28,"refTime":"2025-03-17T21:00:00:Z","depth":0,"parameterNumber":2,"parameterNumberName":"U-component_of_WINDS"},"data":[0,0,0,0,0,0,0,0,0,0,0,0,0,0,0,0,0,0,0,0,0,0,0,0,0,0,0,0,0,0,0,0,0,0,0,0,0,0,0,0,0,0,0,0,0,0,0,0,0,0,0,0,0,0,0,0,0,0,0.2123,0.2123,0,0.2103,0.2102,0.2102,0.2027,0.2025,0.2023,0.2022,0.2005,0.2006,0.2008,0,0,0,0,0,0,0,0,0,0,0,0,0,0.2102,0.2103,0.2123,0.2123,0.2123,0.2103,0.2102,0.2102,0.2027,0.2025,0.2023,0.2021,0.2005,0.2006,0.2008,0,0,0,0,0,0,0,0,0,0,0,0,0,0.21,0.2104,0.2123,0.2083,0.2079,0.2103,0.2102,0.2102,0.2027,0.2025,0.2022,0.202,0.2004,0.2006,0.2008,0.2071,0,0,0.2013,0.2014,0,0,0,0,0,0,0,0,0.21,0.2101,0.2089,0.2086,0.2081,0.2064,0.2089,0.2092,0.2028,0.2047,0.2022,0.2019,0.2027,0.2027,0.2029,0.207,0.2069,0.2013,0.2015,0.2015,0.2016,0,0,0,0,0,0,0,0.21,0.2101,0.2115,0.2089,0.2084,0.2067,0.2064,0.2089,0.2052,0.2045,0.204,0.2038,0.2025,0.2028,0.2028,0.2069,0.2013,0.2015,0.2016,0.2017,0.2161,0.2164,0,0,0,0,0,0,0.2106,0.2102,0.2116,0.2115,0.2084,0.207,0.2066,0.2073,0.2052,0.2046,0.204,0.2035,0.2026,0.2026,0.2027,0.21,0.2015,0.2017,0.2018,0.2159,0.2162,0.2165,0,0,0,0,0,0,0.2106,0.2108,0.2117,0.2107,0.2107,0.2073,0.2081,0.2074,0.2076,0.2048,0.2041,0.205,0.2024,0.2025,0.206,0.2099,0.2018,0.2019,0.2155,0.216,0.2164,0.2247,0,0,0,0,0,0,0.2105,0.2108,0.2131,0.2108,0.2107,0.2149,0.2083,0.2075,0.2079,0.2071,0.2055,0.205,0.2022,0.2058,0.2062,0.21,0.2021,0.2152,0.2157,0.2162,0.224,0.2253,0.2264,0,0,0,0,0,0.2105,0.2156,0.2132,0.2134,0.2135,0.2151,0.2151,0.2117,0.2082,0.2105,0.2087,0.205,0.2093,0.2062,0.2066,0.2105,0.2149,0.2156,0.2162,0.2235,0.2251,0.2264,0,0,0,0,0,0,0.2186,0.2152,0.2125,0.217,0.2164,0.2139,0.2167,0.2134,0.2139,0.2132,0.209,0.2087,0.213,0.212,0.2086,0.2165,0.2115,0.2123,0.217,0.2184,0.2196,0.2198,0.2022,0,0,0,0,0,0.2208,0.2223,0.2194,0.2236,0.2234,0.2201,0.2207,0.2181,0.2174,0.2171,0.2156,0.2151,0.2164,0.2173,0.2183,0.2238,0.2234,0.2267,0.2279,0.2288,0.2296,0.2325,0.234,0.2186,0.2186,0.2186,0,0,0.2256,0.2239,0.2252,0.2252,0.2244,0.2262,0.22,0.2221,0.2235,0.2175,0.2207,0.2196,0.2189,0.2234,0.2254,0.2228,0.2337,0.2296,0.2304,0.2307,0.2333,0.2348,0.2361,0.219,0.2189,0.2188,0,0,0.2353,0.2341,0.2375,0.2368,0.2357,0.2334,0.2343,0.2322,0.2312,0.2343,0.2299,0.2315,0.2337,0.2334,0.2335,0.243,0.2397,0.2435,0.2497,0.2527,0.2539,0.255,0.2585,0.2598,0.2442,0.2442,0.2442,0,0.2414,0.2438,0.2397,0.2422,0.2424,0.2369,0.2404,0.24,0.2393,0.2397,0.2367,0.2394,0.2385,0.243,0.2453,0.2455,0.2465,0.2437,0.254,0.255,0.256,0.2593,0.2606,0.2447,0.2446,0.2446,0.2445,0,0.2515,0.2532,0.2561,0.2555,0.256,0.259,0.2555,0.2566,0.2539,0.252,0.2554,0.2541,0.2547,0.2556,0.253,0.2597,0.2582,0.2547,0.2497,0.258,0.2611,0.2623,0.2454,0.2452,0.245,0.2449,0,0,0.2663,0.2632,0.2644,0.2641,0.2623,0.2637,0.2665,0.267,0.268,0.2677,0.2701,0.2721,0.2688,0.269,0.2663,0.2689,0.2767,0.2651,0.265,0.2674,0.2842,0.2869,0.2885,0.2744,0.2746,0.2748,0.2843,0,0.2756,0.28,0.2765,0.2817,0.2833,0.2781,0.2805,0.2798,0.2782,0.2794,0.2776,0.2791,0.2746,0.2747,0.277,0.2753,0.28,0.2745,0.2768,0.2769,0.2773,0.29,0.293,0.302,0.2854,0.2856,0.2858,0,0.287,0.2871,0.2924,0.2904,0.2909,0.2932,0.2934,0.2946,0.2938,0.2924,0.2925,0.2892,0.292,0.2869,0.2907,0.2871,0.2878,0.2871,0.2873,0.2876,0.282,0.2908,0.3048,0.3062,0.2876,0.2875,0.2873,0,0.2975,0.2989,0.3023,0.3021,0.2998,0.3015,0.3007,0.2996,0.3001,0.3003,0.3007,0.3013,0.3017,0.3023,0.2993,0.2958,0.3036,0.2982,0.3027,0.3028,0.3047,0.3047,0.3192,0.3049,0.3049,0.3049,0.3048,0,0.3083,0.3119,0.307,0.3091,0.3129,0.3088,0.3127,0.3113,0.3104,0.3123,0.3078,0.3097,0.3055,0.307,0.3047,0.3083,0.3085,0.3076,0.307,0.3081,0.3082,0.3086,0.308,0.3052,0.3051,0.3051,0.305,0,0.3208,0.3176,0.321,0.3184,0.3179,0.3208,0.3187,0.3207,0.3186,0.3211,0.3214,0.3183,0.3198,0.3168,0.318,0.3165,0.3216,0.3199,0.3219,0.3215,0.3262,0.3259,0.3416,0.3435,0.3279,0.328,0.3281,0,0.328,0.3305,0.3282,0.3291,0.3284,0.3299,0.3304,0.3264,0.3272,0.3264,0.3285,0.3296,0.3303,0.333,0.331,0.3319,0.3303,0.3358,0.3304,0.3315,0.3306,0.3306,0.3309,0.3369,0.3371,0.3373,0.3374,0,0.3412,0.3395,0.3403,0.3406,0.3412,0.3413,0.3411,0.3421,0.3379,0.339,0.3404,0.341,0.3421,0.3433,0.3437,0.343,0.3397,0.3391,0.3402,0.3415,0.3426,0.3422,0.3251,0.3388,0.3386,0.3385,0.3385,0.3384,0.3513,0.3534,0.3521,0.3532,0.3525,0.3524,0.3541,0.3522,0.3533,0.3538,0.3515,0.3535,0.3526,0.3528,0.3524,0.3541,0.3516,0.3532,0.3537,0.3542,0.355,0.3421,0.3541,0.3541,0.354,0.354,0.3539,0,0.3644,0.3633,0.3643,0.3641,0.365,0.3614,0.361,0.362,0.3638,0.3632,0.3639,0.3656,0.3668,0.3648,0.3657,0.3674,0.3659,0.3678,0.3677,0.3677,0.357,0.356,0.369,0.369,0.369,0.369,0.369,0.369,0.3714,0.3747,0.3729,0.3759,0.3747,0.3766,0.3766,0.3766,0.3761,0.3781,0.379,0.3776,0.3766,0.3773,0.3783,0.3777,0.3783,0.3808,0.3797,0.3699,0.3684,0.367,0.3661,0.3809,0.381,0.3902,0.3903,0.3904]},{"header":{"parameterUnit":"m.s-1","parameterCategory":1,"la1":30.2991,"la2":30.254,"lo1":-89.0895,"lo2":-89.0444,"dy":0.0017,"dx":0.0017,"nx":28,"ny":28,"refTime":"2025-03-17T21:00:00:Z","depth":0,"parameterNumber":3,"parameterNumberName":"V-component_of_WINDS"},"data":[0,0,0,0,0,0,0,0,0,0,0,0,0,0,0,0,0,0,0,0,0,0,0,0,0,0,0,0,0,0,0,0,0,0,0,0,0,0,0,0,0,0,0,0,0,0,0,0,0,0,0,0,0,0,0,0,0,0,0.0408,0.0407,0,0.0352,0.0351,0.0351,0.0307,0.0307,0.0306,0.0306,0.0248,0.0246,0.0245,0,0,0,0,0,0,0,0,0,0,0,0,0,0.0478,0.0477,0.0408,0.0407,0.0407,0.0352,0.0351,0.035,0.0307,0.0307,0.0306,0.0306,0.0248,0.0247,0.0245,0,0,0,0,0,0,0,0,0,0,0,0,0,0.0438,0.0477,0.0408,0.0379,0.0375,0.0352,0.0351,0.035,0.0307,0.0307,0.0306,0.0306,0.0248,0.0247,0.0245,0.0246,0,0,0.024,0.0239,0,0,0,0,0,0,0,0,0.044,0.0435,0.0384,0.0381,0.0377,0.0336,0.0354,0.0315,0.0308,0.0333,0.0306,0.0305,0.0277,0.0273,0.0264,0.0244,0.0241,0.0239,0.0238,0.0238,0.0237,0,0,0,0,0,0,0,0.0443,0.0437,0.0386,0.0383,0.0379,0.0368,0.0362,0.0347,0.0309,0.0331,0.0328,0.0322,0.0275,0.0266,0.0262,0.024,0.0239,0.0238,0.0237,0.0236,0.0218,0.0219,0,0,0,0,0,0,0.045,0.044,0.0388,0.0384,0.0408,0.0367,0.036,0.035,0.0309,0.0303,0.0322,0.032,0.0269,0.0264,0.026,0.0259,0.0238,0.0236,0.0235,0.0218,0.0218,0.0219,0,0,0,0,0,0,0.0452,0.0446,0.039,0.0411,0.0403,0.0367,0.0355,0.0349,0.0339,0.0303,0.0296,0.0319,0.0268,0.0263,0.025,0.0257,0.0235,0.0234,0.0217,0.0218,0.0219,0.0257,0,0,0,0,0,0,0.0454,0.0447,0.0447,0.0411,0.0402,0.0381,0.0356,0.0348,0.0336,0.0333,0.0298,0.0292,0.0268,0.0253,0.0248,0.0254,0.0232,0.0216,0.0217,0.0218,0.0255,0.026,0.0263,0,0,0,0,0,0.0457,0.046,0.0447,0.0441,0.0402,0.0382,0.0376,0.0348,0.0337,0.0337,0.0314,0.0293,0.0257,0.0252,0.0247,0.0251,0.0216,0.0217,0.0218,0.0254,0.0259,0.0263,0,0,0,0,0,0,0.0497,0.0455,0.044,0.0432,0.0411,0.0374,0.0373,0.0355,0.0336,0.0333,0.0299,0.0292,0.0283,0.0266,0.0262,0.0251,0.0234,0.0234,0.0262,0.0267,0.0271,0.0275,0.0231,0,0,0,0,0,0.0505,0.0492,0.0456,0.0452,0.0442,0.041,0.04,0.038,0.0357,0.0348,0.0323,0.0302,0.0285,0.0275,0.0258,0.0253,0.0245,0.0253,0.0257,0.0261,0.0261,0.0258,0.0261,0.0223,0.0223,0.0223,0,0,0.0521,0.0496,0.049,0.0459,0.0441,0.0429,0.0402,0.039,0.0381,0.0346,0.0333,0.0314,0.0287,0.0279,0.0274,0.0264,0.027,0.0262,0.0265,0.0264,0.0259,0.0263,0.0266,0.0224,0.0224,0.0224,0,0,0.0544,0.0524,0.0519,0.0501,0.0473,0.0451,0.045,0.0417,0.0403,0.039,0.0363,0.0352,0.0324,0.0306,0.0293,0.0311,0.0291,0.0306,0.0326,0.0323,0.0326,0.0328,0.0335,0.0337,0.0307,0.0307,0.0307,0,0.0567,0.0548,0.0518,0.0508,0.0496,0.0464,0.0458,0.0442,0.041,0.0402,0.0392,0.0357,0.0337,0.0324,0.0328,0.0319,0.0316,0.031,0.0328,0.033,0.0332,0.0337,0.034,0.0309,0.0309,0.0308,0.0308,0,0.0578,0.0565,0.0564,0.0535,0.0522,0.0514,0.0484,0.0474,0.0456,0.0436,0.0423,0.0397,0.0375,0.037,0.0352,0.0355,0.035,0.0334,0.0316,0.0338,0.0343,0.0345,0.0312,0.0311,0.031,0.031,0,0,0.0625,0.0579,0.0579,0.0566,0.0533,0.0522,0.0514,0.0492,0.0485,0.0464,0.0455,0.0433,0.0419,0.0404,0.0384,0.0381,0.0397,0.0366,0.0365,0.0373,0.0399,0.0411,0.0414,0.0384,0.0384,0.0384,0.0401,0,0.0643,0.0625,0.0598,0.0589,0.0577,0.0547,0.0539,0.0518,0.0499,0.0486,0.0465,0.045,0.0432,0.0423,0.0419,0.0396,0.0402,0.0394,0.0376,0.0375,0.0384,0.0416,0.0429,0.0446,0.0403,0.0403,0.0403,0,0.0661,0.0643,0.0632,0.0601,0.0595,0.0589,0.0567,0.0555,0.0531,0.0517,0.0501,0.0479,0.0468,0.0452,0.0437,0.0432,0.0423,0.0411,0.0411,0.0408,0.0391,0.0414,0.045,0.0453,0.0406,0.0406,0.0405,0,0.0696,0.0669,0.0659,0.0648,0.0612,0.0608,0.0592,0.0568,0.0556,0.0537,0.053,0.051,0.0499,0.0484,0.0457,0.0448,0.0444,0.0426,0.0433,0.0433,0.0433,0.0433,0.0468,0.0427,0.0427,0.0427,0.0427,0,0.0719,0.0714,0.0674,0.0669,0.0662,0.0632,0.0627,0.0608,0.0587,0.0577,0.0549,0.0541,0.0506,0.0493,0.0472,0.0462,0.0458,0.0446,0.0441,0.0449,0.045,0.0442,0.044,0.0428,0.0428,0.0428,0.0427,0,0.0757,0.073,0.0718,0.0685,0.0676,0.0673,0.0644,0.0637,0.0617,0.0605,0.06,0.0568,0.0552,0.0524,0.0499,0.0485,0.0479,0.047,0.0488,0.0484,0.0493,0.0492,0.0523,0.0526,0.0484,0.0484,0.0484,0,0.0774,0.0769,0.0735,0.0727,0.0713,0.0699,0.0688,0.0658,0.0648,0.062,0.0617,0.0598,0.0582,0.0557,0.0532,0.0513,0.0502,0.0515,0.0499,0.0508,0.0503,0.0503,0.0503,0.0518,0.0519,0.0519,0.052,0,0.0806,0.0793,0.0777,0.0758,0.0745,0.0728,0.071,0.0705,0.0671,0.066,0.0643,0.0631,0.0606,0.0588,0.0565,0.0549,0.0529,0.0525,0.0525,0.0533,0.0544,0.0539,0.0497,0.0524,0.0524,0.0523,0.0523,0.0523,0.0833,0.0828,0.0804,0.0788,0.0771,0.0755,0.0747,0.0726,0.0711,0.0689,0.0672,0.0657,0.0633,0.0601,0.0586,0.0573,0.0564,0.0565,0.0565,0.0566,0.0569,0.0546,0.0569,0.0569,0.0569,0.0569,0.0569,0,0.0864,0.0847,0.0833,0.0808,0.0796,0.0778,0.0757,0.0748,0.0735,0.0715,0.0699,0.068,0.0663,0.0636,0.0617,0.0612,0.0602,0.0608,0.0608,0.0604,0.0578,0.058,0.0616,0.0616,0.0616,0.0616,0.0616,0.0616,0.0879,0.0869,0.0853,0.0835,0.0818,0.0803,0.0793,0.0778,0.0761,0.0741,0.0727,0.071,0.0687,0.0666,0.0649,0.0642,0.0636,0.0645,0.0634,0.061,0.0606,0.0602,0.0603,0.0644,0.0644,0.0661,0.0661,0.0662]}]]